Shawano, WI

2:04 PM CST on February 14, 2016 (GMT -0600)
Shawano

Weather History for KEZS - May, 2013

Change the Weather History Date:

Thursday, May 23, 2013

  Actual Average (KGRB) Record (KGRB)
Temperature  
Mean Temperature 50 °F 57 °F  
Max Temperature 59 °F 68 °F 88 °F (2010)
Min Temperature 42 °F 46 °F 29 °F (1958)
Degree Days  
Heating Degree Days 14 9  
Month to date heating degree days 268  
Since 1 July heating degree days 7805  
Cooling Degree Days 0 1  
Month to date cooling degree days 6  
Year to date cooling degree days 8  
Moisture  
Dew Point 36 °F    
Average Humidity 62    
Maximum Humidity 94    
Minimum Humidity 34    
Precipitation  
Precipitation 0.00 in 0.10 in 1.60 in (2004)
Month to date precipitation 2.04  
Year to date precipitation 8.76  
Snow  
Snow 0.00 in 0.00 in 0.00 in ()
Month to date snowfall 0.2  
Since 1 July snowfall 51.4  
Snow Depth -    
Sea Level Pressure  
Sea Level Pressure 30.12 in    
Wind  
Wind Speed 15 mph (NNE)    
Max Wind Speed 21 mph    
Max Gust Speed 29 mph    
Visibility 10 miles    
Events Rain    
T = Trace of Precipitation, MM = Missing Value Source: NWS Daily Summary

Daily Weather History Graph

Daily Weather History Graph

Search for Another Location

Airport or City:

Trip Planner

Search our weather history database for the weather conditions in past years. The results will help you decide how hot, cold, wet, or windy it might be!

Date:

Astronomy

May. 23, 2013 Rise Set
Actual Time 5:17 AM CDT 8:24 PM CDT
Civil Twilight 4:42 AM CDT 9:00 PM CDT
Nautical Twilight 3:57 AM CDT 9:45 PM CDT
Astronomical Twilight 3:02 AM CDT 10:40 PM CDT
Moon 6:54 PM CDT (5/23) 4:07 AM CDT (5/23)
Length of Visible Light 16h 17m
Length of Day
15h 07m
Waxing Gibbous, 97% of the Moon is Illuminated
May 23
Waxing Gibbous
May 24
Full
May 31
Last Quarter
Jun 8
New
Jun 16
First Quarter

Hourly Weather History & Observations

Time (CDT) Temp. Windchill Dew Point Humidity Pressure Visibility Wind Dir Wind Speed Gust Speed Precip Events Conditions
12:15 AM 53.6 °F - 50.0 °F 88% 29.86 in 10.0 mi NNE 19.6 mph 25.3 mph N/A   Drizzle
12:35 AM 51.8 °F - 50.0 °F 94% 29.86 in 10.0 mi NNE 16.1 mph 25.3 mph N/A Rain Light Rain
12:55 AM 51.8 °F - 50.0 °F 94% 29.87 in 10.0 mi North 15.0 mph 20.7 mph N/A Rain Light Rain
1:15 AM 51.8 °F - 50.0 °F 94% 29.88 in 10.0 mi NNE 17.3 mph 24.2 mph N/A Rain Light Rain
1:35 AM 51.8 °F - 48.2 °F 88% 29.88 in 10.0 mi NNE 20.7 mph 28.8 mph N/A Rain Light Rain
1:55 AM 50.0 °F - 46.4 °F 87% 29.89 in 10.0 mi NNE 19.6 mph 27.6 mph N/A Rain Light Rain
2:15 AM 50.0 °F - 46.4 °F 87% 29.90 in 10.0 mi North 12.7 mph - N/A Rain Light Rain
2:35 AM 48.2 °F - 44.6 °F 87% 29.90 in 10.0 mi NNE 18.4 mph 27.6 mph N/A Rain Light Rain
2:55 AM 46.4 °F 38.7 °F 44.6 °F 93% 29.91 in 10.0 mi NNE 20.7 mph 27.6 mph N/A Rain Light Rain
3:15 AM 46.4 °F 41.1 °F 44.6 °F 93% 29.92 in 10.0 mi NNE 11.5 mph - N/A Rain Light Rain
3:35 AM 46.4 °F 40.1 °F 44.6 °F 93% 29.93 in 10.0 mi North 15.0 mph 20.7 mph N/A   Light Drizzle
3:55 AM 46.4 °F 39.0 °F 42.8 °F 87% 29.94 in 10.0 mi North 19.6 mph 25.3 mph N/A   Overcast
4:15 AM 44.6 °F 38.8 °F 42.8 °F 93% 29.94 in 10.0 mi North 11.5 mph - N/A Rain Light Rain
4:35 AM 44.6 °F 37.2 °F 42.8 °F 93% 29.96 in 10.0 mi North 17.3 mph - N/A   Overcast
4:55 AM 44.6 °F 36.9 °F 41.0 °F 87% 29.96 in 10.0 mi NNE 18.4 mph 24.2 mph N/A   Overcast
5:15 AM 44.6 °F 37.4 °F 41.0 °F 87% 29.98 in 10.0 mi North 16.1 mph 25.3 mph N/A   Overcast
5:35 AM 44.6 °F 37.8 °F 41.0 °F 87% 29.99 in 10.0 mi North 15.0 mph 25.3 mph N/A   Overcast
5:55 AM 44.6 °F 38.8 °F 41.0 °F 87% 30.00 in 10.0 mi North 11.5 mph - N/A   Overcast
6:15 AM 42.8 °F 36.2 °F 39.2 °F 87% 30.02 in 10.0 mi North 12.7 mph - N/A   Overcast
6:35 AM 42.8 °F 34.8 °F 37.4 °F 81% 30.03 in 10.0 mi NNE 17.3 mph 21.9 mph N/A   Overcast
6:55 AM 42.8 °F 34.8 °F 37.4 °F 81% 30.05 in 10.0 mi North 17.3 mph 25.3 mph N/A   Overcast
7:15 AM 42.8 °F 35.1 °F 37.4 °F 81% 30.06 in 10.0 mi NNE 16.1 mph 24.2 mph N/A   Overcast
7:35 AM 42.8 °F 34.8 °F 35.6 °F 76% 30.07 in 10.0 mi North 17.3 mph 26.5 mph N/A   Overcast
7:55 AM 42.8 °F 35.8 °F 35.6 °F 76% 30.08 in 10.0 mi North 13.8 mph 20.7 mph N/A   Mostly Cloudy
8:15 AM 44.6 °F 37.4 °F 37.4 °F 76% 30.08 in 10.0 mi NNE 16.1 mph - N/A   Scattered Clouds
8:35 AM 46.4 °F 39.5 °F 37.4 °F 71% 30.09 in 10.0 mi NNE 17.3 mph 24.2 mph N/A   Mostly Cloudy
9:15 AM 46.4 °F 40.1 °F 37.4 °F 71% 30.11 in 10.0 mi North 15.0 mph 18.4 mph N/A   Overcast
9:35 AM 44.6 °F 37.4 °F 35.6 °F 71% 30.12 in 10.0 mi North 16.1 mph 21.9 mph N/A   Overcast
9:55 AM 46.4 °F 40.1 °F 35.6 °F 66% 30.13 in 10.0 mi North 15.0 mph 21.9 mph N/A   Mostly Cloudy
10:15 AM 50.0 °F - 37.4 °F 62% 30.13 in 10.0 mi North 17.3 mph - N/A   Scattered Clouds
10:35 AM 50.0 °F - 37.4 °F 62% 30.14 in 10.0 mi NNE 15.0 mph 23.0 mph N/A   Scattered Clouds
10:55 AM 50.0 °F - 37.4 °F 62% 30.14 in 10.0 mi North 15.0 mph 21.9 mph N/A   Scattered Clouds
11:15 AM 50.0 °F - 37.4 °F 62% 30.14 in 10.0 mi NNE 17.3 mph 26.5 mph N/A   Scattered Clouds
11:35 AM 51.8 °F - 35.6 °F 54% 30.15 in 10.0 mi North 15.0 mph 19.6 mph N/A   Clear
11:55 AM 51.8 °F - 35.6 °F 54% 30.15 in 10.0 mi North 10.4 mph 19.6 mph N/A   Clear
12:15 PM 53.6 °F - 35.6 °F 51% 30.16 in 10.0 mi North 15.0 mph 19.6 mph N/A   Clear
12:35 PM 53.6 °F - 33.8 °F 47% 30.16 in 10.0 mi North 15.0 mph 20.7 mph N/A   Clear
12:55 PM 55.4 °F - 33.8 °F 44% 30.16 in 10.0 mi NNE 11.5 mph 18.4 mph N/A   Clear
1:15 PM 55.4 °F - 32.0 °F 41% 30.17 in 10.0 mi NNE 13.8 mph 24.2 mph N/A   Clear
1:35 PM 55.4 °F - 32.0 °F 41% 30.17 in 10.0 mi NE 15.0 mph 20.7 mph N/A   Clear
1:55 PM 57.2 °F - 32.0 °F 38% 30.17 in 10.0 mi NNE 15.0 mph 26.5 mph N/A   Clear
2:15 PM 57.2 °F - 32.0 °F 38% 30.17 in 10.0 mi NNE 12.7 mph 19.6 mph N/A   Clear
2:35 PM 59.0 °F - 32.0 °F 36% 30.18 in 10.0 mi North 11.5 mph - N/A   Clear
2:55 PM 59.0 °F - 32.0 °F 36% 30.18 in 10.0 mi NNE 13.8 mph 20.7 mph N/A   Clear
3:15 PM 59.0 °F - 32.0 °F 36% 30.18 in 10.0 mi North 12.7 mph 19.6 mph N/A   Clear
3:35 PM 59.0 °F - 32.0 °F 36% 30.19 in 10.0 mi NNE 12.7 mph - N/A   Clear
3:55 PM 59.0 °F - 32.0 °F 36% 30.19 in 10.0 mi NNW 12.7 mph 17.3 mph N/A   Clear
4:15 PM 59.0 °F - 30.2 °F 34% 30.19 in 10.0 mi NNE 15.0 mph 21.9 mph N/A   Clear
4:35 PM 59.0 °F - 32.0 °F 36% 30.20 in 10.0 mi NE 11.5 mph - N/A   Clear
4:55 PM 59.0 °F - 30.2 °F 34% 30.20 in 10.0 mi North 12.7 mph 19.6 mph N/A   Clear
5:15 PM 59.0 °F - 32.0 °F 36% 30.21 in 10.0 mi NNE 10.4 mph 17.3 mph N/A   Clear
5:35 PM 59.0 °F - 30.2 °F 34% 30.21 in 10.0 mi NNE 13.8 mph 18.4 mph N/A   Clear
5:55 PM 59.0 °F - 32.0 °F 36% 30.22 in 10.0 mi North 13.8 mph - N/A   Clear
6:15 PM 59.0 °F - 32.0 °F 36% 30.22 in 10.0 mi NNE 15.0 mph - N/A   Clear
6:35 PM 57.2 °F - 30.2 °F 36% 30.23 in 10.0 mi NNE 15.0 mph 23.0 mph N/A   Clear
6:55 PM 55.4 °F - 30.2 °F 38% 30.24 in 10.0 mi North 13.8 mph - N/A   Clear
7:15 PM 55.4 °F - 32.0 °F 41% 30.25 in 10.0 mi NNE 15.0 mph - N/A   Clear
7:35 PM 55.4 °F - 30.2 °F 38% 30.25 in 10.0 mi North 15.0 mph - N/A   Clear
7:55 PM 53.6 °F - 32.0 °F 44% 30.26 in 10.0 mi North 12.7 mph - N/A   Clear
8:15 PM 53.6 °F - 32.0 °F 44% 30.27 in 10.0 mi North 11.5 mph - N/A   Clear
8:35 PM 51.8 °F - 32.0 °F 47% 30.28 in 10.0 mi North 9.2 mph - N/A   Clear
8:55 PM 50.0 °F - 32.0 °F 50% 30.29 in 10.0 mi North 10.4 mph - N/A   Clear
9:15 PM 51.8 °F - 32.0 °F 47% 30.30 in 10.0 mi NNE 10.4 mph - N/A   Clear
9:35 PM 50.0 °F - 32.0 °F 50% 30.30 in 10.0 mi NNE 12.7 mph - N/A   Clear
9:55 PM 50.0 °F - 32.0 °F 50% 30.31 in 10.0 mi NNE 8.1 mph - N/A   Clear
10:15 PM 48.2 °F - 32.0 °F 54% 30.32 in 10.0 mi NNE 11.5 mph - N/A   Clear
10:35 PM 48.2 °F - 32.0 °F 54% 30.33 in 10.0 mi NNE 12.7 mph - N/A   Clear
10:55 PM 46.4 °F 41.1 °F 32.0 °F 57% 30.34 in 10.0 mi NNE 11.5 mph 17.3 mph N/A   Clear
11:15 PM 46.4 °F 41.9 °F 32.0 °F 57% 30.34 in 10.0 mi NNE 9.2 mph - N/A   Clear
11:35 PM 44.6 °F 39.7 °F 32.0 °F 61% 30.34 in 10.0 mi NNE 9.2 mph - N/A   Clear
11:55 PM 44.6 °F 41.4 °F 32.0 °F 61% 30.34 in 10.0 mi North 5.8 mph - N/A   Clear